Terminal Aerodrome Forecast
Issued by NWS

Home | Current Version | Previous Version | Graphics & Text | Print | Product List | Glossary On
Versions: 1 2 3 4 5 6 7 8 9 10 11 12 13
000
FTUS42 KMHX 012300
TAFPGV
TAF
KPGV 012332Z 0200/0224 23005KT P6SM SCT050 SCT200
     FM020900 22003KT 5SM BR SCT200
     FM021200 24006KT P6SM SCT050
      AMD LTD TO CLD VIS AND WIND=

USA.gov is the U.S. government's official web portal to all federal, state and local government web resources and services.